Location: Unspecified
(0.0000°N, 0.0000°E)
Time: 18:54:52
(UTC-04:00)

Envisat - Pass Details

Date: 25 September 2021
Orbit: 764 x 766 km, 98.2° (Epoch: 20 October)

Event Time Altitude Azimuth Distance (km) Brightness Sun altitude
Rises 00:09:55 0° 30° (NNE) 3,213 6.6 -25.4°
Reaches altitude 10° 00:12:25 10° 39° (NE) 2,290 5.9 -24.8°
Maximum altitude 00:16:54 32° 102° (ESE) 1,277 4.7 -23.7°
Drops below altitude 10° 00:21:23 10° 165° (SSE) 2,299 5.6 -22.6°
Sets 00:23:54 0° 174° (S) 3,227 6.3 -22.0°
